EHI
12 12 11 9 8 8 8 6 4 4 4 4 3 3 2 2 1 2 3 4 6 8 8 9 12 13 12 9 8 8 7 5 3 2 4 5 4 2 1 2 2 2 1
12 11 11 10 9 8 7 4 3 3 3 4 4 4 3 2 3 4 5 5 6 7 8 10 11 12 12 11 10 10 8 5 3 4 5 5 4 2 1 1 1 1 0
14 12 11 10 10 8 6 4 3 3 3 4 5 5 5 4 6 7 7 7 7 7 8 10 11 10 9 10 11 11 8 5 4 5 6 4 3 2 1 0 0 0 0
17 15 13 10 8 7 7 6 5 4 4 5 7 7 6 6 8 8 8 8 9 9 10 10 10 8 6 6 7 8 6 4 5 5 4 4 2 1 1 1 1 1 1
17 16 13 10 7 7 8 7 6 6 6 7 8 8 6 5 5 6 6 7 9 10 10 8 7 6 5 3 3 4 4 3 4 4 3 3 3 3 3 3 3 2 1
17 16 14 11 9 8 8 7 8 8 7 8 10 9 7 4 2 2 2 4 6 7 6 5 4 5 4 2 1 1 1 1 2 3 3 4 4 4 4 4 4 3 1
21 19 16 15 12 9 8 9 9 9 8 8 9 9 8 5 1 0 0 1 2 2 2 2 3 5 6 4 2 1 1 1 1 2 3 3 4 4 4 3 3 2 2
28 24 20 19 16 12 10 11 11 9 8 7 7 8 8 5 1 0 0 0 1 1 2 3 5 7 7 5 3 2 2 2 1 1 1 2 2 3 3 2 1 1 1
34 29 24 21 19 16 14 14 12 10 8 7 6 7 7 4 1 0 0 0 1 2 3 4 5 6 6 3 2 3 3 2 1 0 0 1 1 1 1 1 0 0 0
34 31 27 24 22 20 18 17 14 10 7 6 6 5 4 2 0 0 0 1 1 2 4 3 3 3 2 1 1 1 2 1 0 0 0 0 0 0 0 0 0 0 0
31 30 28 25 21 20 19 17 14 11 9 7 5 3 2 1 0 0 0 1 2 2 3 3 2 1 0 0 0 0 0 0 0 0 0 0 0 0 0 0 0 0 0
27 26 25 22 18 17 17 15 12 11 10 8 5 2 2 1 0 0 0 1 1 1 2 2 2 1 0 0 0 0 0 0 0 0 0 0 0 0 0 0 0 0 0
20 20 19 17 15 14 14 13 11 9 8 6 3 2 2 1 0 0 0 0 0 0 1 1 1 0 0 0 0 0 0 0 0 0 0 0 0 0 0 0 0 0 0
15 15 14 12 11 11 11 9 8 6 5 4 3 2 2 1 0 0 0 0 0 0 0 0 0 0 0 0 0 0 0 0 0 0 0 0 0 0 0 0 0 0 0
12 11 11 9 7 6 6 5 4 3 3 3 3 3 2 1 0 0 1 0 0 0 0 0 0 0 0 0 0 0 0 0 0 0 0 0 0 0 0 0 0 0 0
8 8 8 7 4 4 5 4 2 1 1 1 1 2 1 0 0 0 0 0 0 0 0 0 0 0 0 0 0 0 0 0 0 0 0 0 0 0 0 0 0 0 0
4 4 5 5 4 4 5 4 2 1 0 0 0 0 0 0 0 0 0 0 0 0 0 0 0 0 0 0 0 0 0 0 0 0 0 0 0 0 0 0 0 0 0
2 2 3 4 4 3 4 4 3 1 1 0 0 0 0 0 0 0 0 0 0 0 0 0 0 0 0 0 0 0 0 0 0 0 0 0 0 0 0 0 0 0 0
1 0 1 2 3 3 3 3 3 2 1 0 0 0 0 0 0 0 0 0 0 0 0 0 0 0 0 0 0 0 0 0 0 0 0 0 0 0 0 0 0 0 0
0 0 0 1 1 2 2 2 2 2 1 0 0 0 0 0 0 0 0 0 0 0 0 0 0 0 0 0 0 0 0 0 0 0 0 0 0 0 0 0 0 0 0
0 0 0 0 0 1 1 1 1 1 0 0 0 0 0 0 0 0 0 0 0 0 0 0 0 0 0 0 0 0 0 0 0 0 0 0 0 0 0 0 0 0 0
0 0 0 0 0 0 0 0 0 0 0 0 0 0 0 0 0 0 0 0 0 0 0 0 0 0 0 0 0 0 0 0 0 0 0 0 0 0 0 0 0 0 0
0 0 0 0 0 0 0 0 0 0 0 0 0 0 0 0 0 0 0 0 0 0 0 0 0 0 0 0 0 0 0 0 0 0 0 0 0 0 0 0 0 0 0
0 0 0 0 0 0 0 0 0 0 0 0 0 0 0 0 0 0 0 0 0 0 0 0 0 0 0 0 0 0 0 0 0 0 0 0 0 0 0 0 0 0 0
0 0 0 0 0 0 0 0 0 0 0 0 0 0 0 0 0 0 0 0 0 0 0 0 0 0 0 0 0 0 0 0 0 0 0 0 0 0 0 0 0 0 0
0 0 0 0 0 0 0 0 0 0 0 0 0 0 0 0 0 0 0 0 0 0 0 0 0 0 0 0 0 0 0 0 0 0 0 0 0 0 0 0 0 0 0
Wind_Speed
7 6 6 6 6 6 6 6 6 6 6 7 7 7 7 7 7 6 7 6 7 6 6 7 7 5 4 4 4 4 4 3 3 2 3 4 5 5 6 5 6 6 8
6 6 6 5 6 6 6 6 6 6 6 6 6 6 7 7 7 7 7 6 6 7 7 6 6 5 5 5 4 4 3 3 4 5 4 4 5 5 6 5 5 5 7
7 6 6 6 6 5 5 5 5 5 5 6 6 6 6 6 6 6 6 6 6 6 6 6 6 6 6 5 5 4 4 4 4 5 5 4 4 5 6 5 6 4 6
6 6 5 5 5 5 5 5 5 5 5 5 5 5 5 5 5 5 5 5 5 4 4 4 5 5 6 5 4 5 4 4 5 5 6 5 5 5 5 5 5 4 4
6 6 5 5 5 4 4 4 4 4 4 4 4 4 4 4 3 4 4 4 4 4 3 3 3 2 1 1 2 4 5 4 5 5 5 5 6 6 6 5 6 5 4
6 6 5 5 5 4 4 4 4 3 3 3 3 3 3 1 2 1 2 3 3 3 3 2 2 4 5 5 4 3 3 5 5 5 5 6 6 6 5 6 6 6 4
6 6 6 6 5 5 4 4 4 3 3 3 2 2 2 2 3 3 2 2 2 2 3 3 2 3 6 6 7 7 5 4 2 3 5 5 6 6 7 7 6 4 3
7 6 6 6 5 5 4 4 3 3 3 2 2 2 2 3 4 3 3 3 2 2 2 3 3 4 4 6 6 6 5 4 3 3 3 3 4 5 6 6 7 6 5
7 6 6 5 6 5 5 5 4 3 3 3 2 3 3 3 4 4 3 3 3 3 2 2 3 4 6 7 8 7 7 6 9 11 10 9 9 7 5 6 6 6 5
7 6 5 5 5 5 5 4 4 4 3 3 3 2 3 3 3 3 3 3 4 4 3 3 4 5 6 6 7 8 8 7 7 8 9 9 8 8 5 4 5 5 4
6 5 5 5 5 5 4 4 4 4 4 4 4 3 3 3 4 3 1 2 4 4 4 3 4 7 6 4 4 5 7 8 8 8 7 7 6 5 4 3 1 1 2
6 5 5 4 4 4 4 4 4 4 5 4 4 4 3 3 3 4 3 2 1 4 3 4 5 8 7 6 5 8 9 7 6 6 6 5 5 5 4 4 4 3 3
6 5 4 4 3 4 4 4 4 4 4 4 4 3 3 3 4 6 5 5 4 4 4 8 9 10 9 8 9 9 7 6 6 6 6 5 5 5 5 5 5 4 4
5 5 4 4 4 3 2 3 3 4 4 4 4 4 4 4 4 4 5 6 7 6 6 9 10 8 6 8 8 6 4 4 5 6 6 6 6 6 5 4 4 5 4
4 4 4 4 4 3 2 1 1 1 1 2 3 4 4 4 3 4 4 5 5 6 8 6 6 6 6 6 5 5 5 5 4 5 5 5 5 5 5 4 3 3 3
4 4 3 3 3 3 3 3 7 5 4 3 3 1 3 4 7 6 5 6 7 8 7 6 6 6 6 6 6 6 5 5 5 5 5 5 5 5 5 4 3 3 3
3 2 2 2 3 3 3 3 3 4 6 6 4 4 5 7 8 8 8 8 7 7 5 5 5 5 5 6 6 6 5 5 5 5 5 5 5 4 4 4 4 3 2
2 2 2 2 2 2 3 3 3 4 4 3 4 5 7 8 8 8 8 7 5 5 5 5 5 5 5 5 5 5 5 6 5 5 5 4 4 4 4 4 4 3 3
2 1 1 1 2 2 2 2 3 4 4 4 4 4 5 7 7 6 6 5 5 6 5 5 5 5 5 5 5 5 5 5 5 5 5 5 4 4 4 4 4 4 3
2 3 1 1 2 2 2 2 3 3 4 4 4 5 6 5 5 5 5 5 4 5 4 5 5 5 5 5 5 5 5 5 6 5 5 5 5 4 5 5 4 4 4
2 3 3 2 2 2 2 3 3 4 4 4 4 4 5 5 5 6 5 4 4 4 4 5 5 5 6 6 6 6 6 5 5 5 5 5 5 5 4 4 4 4 4
2 2 2 2 2 2 2 3 3 3 4 5 4 6 5 4 4 5 5 4 4 4 4 4 5 5 5 6 6 6 6 6 6 5 5 5 5 5 5 5 5 4 4
2 3 3 3 3 4 3 3 3 3 3 4 4 5 5 4 3 3 4 4 4 4 4 4 4 4 5 5 5 5 5 5 5 6 6 5 5 5 5 5 6 6 5
3 3 3 3 3 3 3 3 3 3 3 3 4 4 4 4 3 3 4 4 4 4 4 5 5 6 7 6 5 5 5 5 5 6 7 6 6 5 6 6 6 7 6
3 3 3 3 3 3 3 3 3 3 3 3 3 4 4 4 5 5 5 5 5 5 6 6 6 7 9 10 8 6 5 4 3 4 6 7 7 7 7 7 6 7 7
3 3 3 3 3 3 3 3 4 4 4 4 4 4 4 5 5 5 5 5 6 6 7 6 8 9 9 9 9 8 7 7 6 4 6 7 8 8 8 7 8 8 8
Wind_Direction
187 189 195 199 201 204 207 206 207 214 216 217 216 220 223 226 226 225 231 228 228 228 228 225 226 244 242 240 235 234 236 231 208 160 129 124 131 128 122 125 126 123 114
181 183 191 192 194 199 201 205 204 206 213 214 216 219 223 225 222 222 226 225 226 229 229 226 225 218 218 235 233 227 218 212 198 167 154 147 139 135 131 129 126 124 117
177 183 184 188 187 189 190 195 197 200 208 212 213 216 221 223 222 226 229 227 228 231 232 227 224 221 221 220 221 215 205 190 182 170 164 150 147 143 136 125 115 111 119
178 180 183 188 185 185 184 186 190 198 207 210 215 218 217 216 219 224 228 229 228 231 233 233 231 225 222 216 208 199 190 179 172 171 158 156 151 147 146 147 138 130 126
180 180 184 182 180 181 180 182 187 197 203 205 209 209 214 217 219 218 219 216 213 214 219 223 222 191 162 196 202 182 178 180 173 171 164 161 164 166 169 165 150 139 125
179 177 175 176 173 172 172 171 176 185 191 188 196 201 204 216 92 113 214 211 207 204 205 200 170 145 123 112 105 107 153 178 180 178 175 178 175 173 162 160 154 156 155
174 173 172 176 175 173 174 174 177 179 176 177 178 188 184 126 105 126 156 195 194 193 189 180 171 135 129 128 117 108 92 80 110 183 183 181 168 168 165 166 165 163 139
172 174 175 176 174 171 172 169 171 173 173 171 165 168 158 121 113 125 137 162 147 143 155 156 147 142 136 135 125 113 100 82 83 125 146 154 149 151 163 160 148 135 125
172 173 173 177 176 175 176 173 173 173 171 166 154 153 152 129 115 132 151 136 128 124 121 126 138 138 121 130 132 127 117 102 78 79 83 93 95 110 133 147 153 162 157
170 171 173 176 175 177 175 173 168 167 166 158 137 134 142 140 123 144 162 150 141 138 126 120 107 125 133 146 146 141 136 131 125 114 105 111 114 115 118 150 168 174 163
159 161 164 168 171 168 163 165 165 166 162 157 144 138 134 124 126 121 161 169 158 151 145 139 121 117 122 125 138 134 133 133 129 123 119 118 115 117 125 123 113 175 168
149 152 152 156 161 155 156 158 161 164 162 159 151 143 127 115 105 116 110 109 131 146 142 132 121 126 124 122 119 117 126 132 128 127 126 125 124 124 119 109 93 74 56
142 143 145 149 157 161 164 163 166 176 182 174 169 165 153 139 122 114 114 104 96 113 105 104 116 125 124 116 117 131 146 143 135 134 130 127 123 119 120 121 120 118 119
148 152 158 161 162 154 165 179 185 188 189 182 180 180 170 159 153 152 149 137 126 122 121 116 117 118 116 116 134 147 147 130 136 136 133 131 131 136 140 144 147 150 144
154 163 168 168 163 152 139 60 259 166 216 210 196 184 180 178 159 159 166 159 154 146 143 142 141 142 143 147 148 140 140 144 145 141 141 143 145 144 145 146 157 165 161
167 174 175 170 168 170 155 121 52 53 71 75 64 97 121 111 127 132 131 128 131 150 157 154 158 162 165 164 159 156 159 158 153 150 153 156 156 155 151 151 164 175 163
174 178 181 178 174 177 176 170 149 90 70 71 82 97 112 126 133 137 137 136 146 164 171 163 167 170 173 168 166 163 160 151 154 164 166 165 161 159 159 160 168 175 171
164 154 188 181 181 186 188 186 175 165 151 120 90 102 122 130 137 141 145 147 155 186 186 175 176 176 174 168 166 162 154 154 164 166 165 166 165 168 171 174 173 174 176
156 151 168 174 174 175 175 175 164 158 149 139 132 118 123 132 134 146 168 186 176 185 191 184 178 174 171 167 162 160 161 164 165 169 168 173 176 182 183 186 173 162 217
117 101 125 161 150 155 162 161 154 152 152 150 153 148 149 159 161 166 190 206 195 183 183 182 175 172 170 169 168 167 167 170 174 184 178 181 187 192 190 196 194 193 208
117 122 137 145 141 149 150 153 151 152 157 158 157 146 160 174 174 175 184 193 195 185 182 181 175 178 178 176 174 176 182 183 183 186 183 187 192 192 198 200 202 214 219
132 133 138 133 133 132 133 141 146 152 158 160 151 144 171 195 177 174 181 183 186 184 180 180 184 184 181 177 175 182 187 186 184 184 187 189 193 199 205 211 213 218 226
125 127 125 121 122 130 142 137 138 144 150 153 150 150 167 189 186 180 179 179 180 181 180 184 188 181 175 176 182 188 196 192 187 187 193 196 200 206 211 216 220 227 234
125 129 128 126 131 140 139 136 136 141 147 154 159 160 166 178 186 181 181 177 176 179 181 185 190 186 180 182 190 194 195 194 196 194 201 211 215 219 220 222 230 234 237
122 121 125 130 139 140 138 138 142 150 158 162 166 171 175 179 184 188 188 183 184 186 188 190 191 192 192 193 196 193 156 156 206 226 202 216 224 228 233 234 236 239 242
122 125 131 136 143 146 148 153 157 162 170 179 184 187 188 188 190 192 191 192 195 194 197 200 202 200 198 201 198 182 161 172 193 230 245 229 228 230 230 236 238 241 243